This demonstration page uses our WeatherBlox Daily Observations layout. Learn more.

Left ArrowRight Arrow

Hourly Observations for September 2, 2020

Temp ( °F °C ) Dew Point ( °F °C ) Humidity (%) Winds ( mph kmh ) Pressure ( in mb ) Visibility ( mi km ) Precip ( " mm )
12:59 am 00:59 Cloudy 78 25.6 73 22.8 85 85 ESE 7 11 30.02 1017 8 13 0.00 0.00
1:59 am 01:59 Partly Cloudy 76 24.4 73 22.8 91 91 ESE 3 6 29.99 1016 8 13 0.00 0.00
2:59 am 02:59 Partly Cloudy 76 24.4 73 22.8 91 91 Calm 29.97 1015 7 11 0.00 0.00
3:59 am 03:59 Partly Cloudy with Mist and Fog 74 23.3 72 22.2 94 94 Calm 29.97 1015 5 8 0.00 0.00
4:33 am 04:33 Cloudy with Mist and Fog 75 23.9 73 22.8 94 94 Calm 29.98 1015 6 10 0.00 0.00
4:59 am 04:59 Mostly Cloudy 76 24.4 73 22.8 91 91 ENE 3 6 29.96 1015 7 11 0.00 0.00
5:59 am 05:59 Mostly Cloudy 75 23.9 73 22.8 94 94 Calm 29.96 1015 8 13 0.00 0.00
6:59 am 06:59 Mostly Cloudy 76 24.4 73 22.8 91 91 Calm 29.97 1015 7 11 0.00 0.00
7:59 am 07:59 Cloudy 78 25.6 73 22.8 85 85 SSE 5 7 29.98 1015 8 13 0.00 0.00
8:59 am 08:59 Mostly Cloudy 81 27.2 74 23.3 79 79 SSE 7 11 29.96 1015 9 14 0.00 0.00
9:59 am 09:59 Mostly Cloudy 83 28.3 74 23.3 74 74 WSW 6 9 29.97 1015 10 16 0.00 0.00
10:59 am 10:59 Mostly Cloudy 84 28.9 74 23.3 72 72 VRB 6 9 29.97 1015 10 16 0.00 0.00
11:59 am 11:59 Mostly Cloudy 86 30 75 23.9 70 70 W 8 13 29.96 1015 10 16 0.00 0.00
12:59 pm 12:59 Mostly Cloudy 88 31.1 74 23.3 63 63 W 7 11 29.93 1014 10 16 0.00 0.00
1:59 pm 13:59 Mostly Cloudy 88 31.1 75 23.9 66 66 SSW 7 11 29.91 1013 9 14 0.00 0.00
2:59 pm 14:59 Mostly Cloudy 89 31.7 74 23.3 61 61 SW 6 9 29.89 1012 9 14 0.00 0.00
3:59 pm 15:59 Mostly Cloudy 91 32.8 75 23.9 59 59 WSW 8 13 29.88 1012 10 16 0.00 0.00
4:59 pm 16:59 Mostly Cloudy 91 32.8 76 24.4 61 61 VRB 3 6 29.86 1011 9 14 0.00 0.00
5:59 pm 17:59 Mostly Cloudy 89 31.7 75 23.9 63 63 SSW 9 15 29.86 1011 9 14 0.00 0.00
6:59 pm 18:59 Mostly Cloudy 88 31.1 74 23.3 63 63 SW 7 11 29.87 1011 9 14 0.00 0.00
7:59 pm 19:59 Partly Cloudy 85 29.4 75 23.9 72 72 SSW 5 7 29.86 1011 10 16 0.00 0.00
8:59 pm 20:59 Partly Cloudy 84 28.9 75 23.9 74 74 S 3 6 29.87 1012 9 14 0.00 0.00
9:59 pm 21:59 Partly Cloudy 85 29.4 77 25 77 77 SSW 8 13 29.88 1012 9 14 0.00 0.00
10:16 pm 22:16 Partly Cloudy with Thunderstorms 85 29.4 77 25 77 77 SSW 8 13 29.89 1012 9 14 0.00 0.00
10:59 pm 22:59 Mostly Cloudy with Light Rain 79 26.1 73 22.8 82 82 SSW 3 6 29.89 1012 3 5 0.11 2.79
11:32 pm 23:32 Mostly Cloudy with Thunderstorms 79 26.1 75 23.9 88 88 S 6 9 29.88 1012 7 11 0.00 0.00
11:52 pm 23:52 Mostly Cloudy 79 26.1 75 23.9 88 88 SSE 6 9 29.89 1012 8 13 0.00 0.00
11:59 pm 23:59 Mostly Cloudy 79 26.1 76 24.4 90 90 S 5 7 29.89 1012 8 13 0.00 0.00

Powered by AerisWeather